Weather History for KALX - November, 2012

Change the Weather History Date:

Monday, November 12, 2012

  Actual Average (KAUO) Record (KAUO)
Temperature  
Mean Temperature 58 °F -  
Max Temperature 69 °F - 80 °F (1975)
Min Temperature 47 °F - 26 °F (1987)
Degree Days  
Heating Degree Days 7    
Month to date heating degree days  
Since 1 July heating degree days  
Growing Degree Days 8 (Base 50)    
Moisture  
Dew Point 55 °F    
Average Humidity 80    
Maximum Humidity 88    
Minimum Humidity 68    
Precipitation  
Precipitation 0.29 in - 2.01 in (1997)
Month to date precipitation  
Year to date precipitation  
Sea Level Pressure  
Sea Level Pressure 30.25 in    
Wind  
Wind Speed 7 mph (East)    
Max Wind Speed 15 mph    
Max Gust Speed 21 mph    
Visibility 9 miles    
Events Rain    
T = Trace of Precipitation, MM = Missing Value Source: NWS Daily Summary

Daily Weather History Graph

Daily Weather History Graph

Search for Another Location

Airport or City:

Trip Planner

Search our weather history database for the weather conditions in past years. The results will help you decide how hot, cold, wet, or windy it might be!

Date:

Astronomy

Nov. 12, 2012 Rise Set
Actual Time 6:11 AM CST 4:43 PM CST
Civil Twilight 5:45 AM CST 5:09 PM CST
Nautical Twilight 5:16 AM CST 5:39 PM CST
Astronomical Twilight 4:46 AM CST 6:08 PM CST
Moon 4:39 AM CST (11/12) 3:47 PM CST (11/12)
Length of Visible Light 11h 23m
Length of Day
10h 31m
Waning Crescent, 2% of the Moon is Illuminated
Nov 12
Waning Crescent
Nov 13
New
Nov 20
First Quarter
Nov 28
Full
Dec 6
Last Quarter

Hourly Weather History & Observations

Time (CST) Temp. Dew Point Humidity Pressure Visibility Wind Dir Wind Speed Gust Speed Precip Events Conditions
12:15 AM 62.8 °F 53.2 °F 71% 30.24 in 10.0 mi SE 3.5 mph - N/A   Scattered Clouds
12:35 AM 67.3 °F 56.3 °F 68% 30.23 in 10.0 mi SSE 9.2 mph - N/A   Scattered Clouds
12:55 AM 67.3 °F 56.3 °F 68% 30.22 in 10.0 mi SE 8.1 mph - N/A   Clear
1:15 AM 67.3 °F 56.3 °F 68% 30.22 in 10.0 mi SSE 10.4 mph 18.4 mph N/A   Scattered Clouds
1:55 AM 67.3 °F 57.6 °F 71% 30.21 in 10.0 mi SSE 9.2 mph - N/A   Clear
2:15 AM 64.8 °F 55.9 °F 73% 30.21 in 10.0 mi SE 9.2 mph 17.3 mph N/A   Clear
2:35 AM 64.8 °F 56.5 °F 74% 30.20 in 10.0 mi SE 8.1 mph - N/A   Clear
2:55 AM 64.8 °F 56.7 °F 75% 30.20 in 10.0 mi SE 6.9 mph - N/A   Clear
3:15 AM 64.8 °F 57.2 °F 76% 30.20 in 10.0 mi SSE 9.2 mph - N/A   Clear
3:35 AM 64.8 °F 57.2 °F 76% 30.20 in 10.0 mi SE 8.1 mph - N/A   Clear
3:55 AM 64.8 °F 57.4 °F 77% 30.20 in 10.0 mi SSE 6.9 mph 16.1 mph N/A   Clear
4:15 AM 64.8 °F 57.7 °F 78% 30.21 in 10.0 mi SSE 8.1 mph - N/A   Clear
4:35 AM 64.8 °F 58.1 °F 79% 30.22 in 10.0 mi SSE 5.8 mph - N/A   Clear
4:55 AM 64.8 °F 58.3 °F 79% 30.22 in 10.0 mi SSE 4.6 mph - N/A   Clear
5:15 AM 63.3 °F 57.2 °F 80% 30.21 in 10.0 mi SE 4.6 mph - N/A   Clear
5:35 AM 62.8 °F 57.2 °F 82% 30.20 in 10.0 mi SE 5.8 mph - N/A   Clear
5:55 AM 62.8 °F 57.4 °F 82% 30.21 in 10.0 mi SE 5.8 mph - N/A   Clear
6:15 AM 62.8 °F 57.6 °F 83% 30.22 in 10.0 mi SSE 8.1 mph - N/A   Scattered Clouds
6:35 AM 63.5 °F 58.3 °F 83% 30.23 in 10.0 mi SSE 5.8 mph - N/A   Scattered Clouds
6:55 AM 64.8 °F 59.0 °F 82% 30.23 in 10.0 mi SE 6.9 mph - N/A   Scattered Clouds
7:15 AM 64.8 °F 58.6 °F 81% 30.24 in 10.0 mi SE 3.5 mph - N/A   Scattered Clouds
7:35 AM 64.8 °F 58.6 °F 81% 30.25 in 10.0 mi SSE 5.8 mph - N/A   Mostly Cloudy
7:55 AM 66.9 °F 60.6 °F 80% 30.26 in 10.0 mi SSE 5.8 mph - N/A   Mostly Cloudy
8:15 AM 68.9 °F 61.7 °F 78% 30.25 in 10.0 mi SE 6.9 mph - N/A   Scattered Clouds
8:35 AM 69.4 °F 62.2 °F 78% 30.25 in 10.0 mi SE 8.1 mph - N/A   Scattered Clouds
8:55 AM 69.8 °F 62.1 °F 76% 30.24 in 10.0 mi South 5.8 mph 9.2 mph N/A Rain Light Rain
9:15 AM 67.6 °F 61.0 °F 79% 30.25 in 10.0 mi SSE 4.6 mph - N/A Rain Light Rain
9:35 AM 67.3 °F 61.9 °F 83% 30.26 in 10.0 mi Calm Calm - N/A   Light Drizzle
9:55 AM 69.8 °F 63.5 °F 80% 30.25 in 10.0 mi South 4.6 mph - N/A   Scattered Clouds
10:15 AM 69.8 °F 63.0 °F 79% 30.23 in 10.0 mi SSE 5.8 mph - N/A   Scattered Clouds
10:35 AM 69.8 °F 61.3 °F 74% 30.23 in 10.0 mi South 6.9 mph - N/A   Clear
10:55 AM 69.8 °F 60.6 °F 73% 30.21 in 10.0 mi South 6.9 mph - N/A   Clear
11:15 AM 69.8 °F 61.9 °F 76% 30.21 in 10.0 mi South 4.6 mph - N/A Rain Light Rain
11:35 AM 69.8 °F 63.9 °F 81% 30.21 in 7.0 mi SE 3.5 mph - 0.01 in Rain Light Rain
11:55 AM 68.9 °F 64.6 °F 86% 30.20 in 7.0 mi SE 4.6 mph - 0.01 in Rain Light Rain
12:15 PM 68.5 °F 64.6 °F 87% 30.19 in 10.0 mi Calm Calm - 0.01 in Rain Light Rain
12:35 PM 69.8 °F 65.5 °F 86% 30.19 in 7.0 mi Calm Calm - 0.01 in Rain Rain
12:55 PM 69.8 °F 65.7 °F 87% 30.18 in 10.0 mi WSW 6.9 mph - 0.03 in Rain Rain
1:15 PM 64.8 °F 61.0 °F 88% 30.20 in 3.0 mi WNW 8.1 mph - 0.10 in Rain Heavy Rain
1:35 PM 63.1 °F 59.5 °F 88% 30.21 in 4.0 mi WNW 4.6 mph - 0.17 in Rain Rain
1:55 PM 62.8 °F 59.2 °F 88% 30.20 in 5.0 mi NW 6.9 mph - 0.21 in Rain Light Rain
2:15 PM 62.6 °F 59.0 °F 88% 30.20 in 4.0 mi NW 6.9 mph - 0.01 in Rain Light Rain
2:35 PM 62.2 °F 58.6 °F 88% 30.21 in 5.0 mi NNW 10.4 mph 17.3 mph 0.02 in Rain Rain
2:55 PM 61.0 °F 57.0 °F 87% 30.22 in 7.0 mi NW 11.5 mph - 0.02 in   Drizzle
3:15 PM 59.9 °F 56.3 °F 88% 30.23 in 7.0 mi NW 8.1 mph - 0.01 in Rain Rain
3:35 PM 59.9 °F 55.4 °F 85% 30.23 in 10.0 mi NNW 11.5 mph 19.6 mph 0.02 in   Overcast
3:55 PM 57.7 °F 54.0 °F 87% 30.23 in 10.0 mi NW 9.2 mph - 0.02 in   Overcast
4:35 PM 57.6 °F 53.6 °F 87% 30.25 in 10.0 mi NNW 9.2 mph - N/A   Overcast
4:55 PM 57.2 °F 53.6 °F 88% 30.25 in 7.0 mi NNE 9.2 mph - N/A Rain Light Rain
5:15 PM 57.2 °F 53.1 °F 86% 30.26 in 10.0 mi North 13.8 mph - N/A   Overcast
5:35 PM 57.2 °F 52.7 °F 85% 30.26 in 10.0 mi North 13.8 mph 18.4 mph N/A   Overcast
5:55 PM 57.2 °F 52.7 °F 85% 30.27 in 10.0 mi NNW 9.2 mph - N/A   Overcast
6:15 PM 57.2 °F 52.0 °F 83% 30.29 in 10.0 mi NW 9.2 mph - N/A   Overcast
6:35 PM 56.3 °F 50.9 °F 82% 30.30 in 10.0 mi NNW 9.2 mph - N/A   Overcast
6:55 PM 55.0 °F 49.3 °F 81% 30.30 in 10.0 mi NNW 13.8 mph 19.6 mph N/A   Overcast
7:15 PM 54.7 °F 48.6 °F 80% 30.30 in 10.0 mi NNW 10.4 mph - N/A   Overcast
7:35 PM 54.7 °F 49.1 °F 81% 30.30 in 10.0 mi NNW 10.4 mph - N/A   Overcast
7:55 PM 54.7 °F 48.9 °F 81% 30.31 in 10.0 mi NNW 9.2 mph - N/A   Mostly Cloudy
8:15 PM 54.7 °F 48.6 °F 80% 30.32 in 10.0 mi NNW 10.4 mph 16.1 mph N/A   Mostly Cloudy
8:35 PM 54.7 °F 48.7 °F 80% 30.32 in 10.0 mi NNW 12.7 mph 16.1 mph N/A   Mostly Cloudy
8:55 PM 54.1 °F 48.4 °F 81% 30.32 in 10.0 mi North 9.2 mph - N/A   Mostly Cloudy
9:15 PM 52.2 °F 46.6 °F 81% 30.32 in 10.0 mi North 15.0 mph 20.7 mph N/A   Mostly Cloudy
9:35 PM 51.3 °F 44.6 °F 78% 30.33 in 10.0 mi North 10.4 mph 17.3 mph N/A   Scattered Clouds
9:55 PM 49.6 °F 42.8 °F 77% 30.33 in 10.0 mi North 9.2 mph - N/A   Clear
10:15 PM 49.6 °F 43.0 °F 78% 30.33 in 10.0 mi North 13.8 mph 20.7 mph N/A   Clear
10:35 PM 49.6 °F 43.0 °F 78% 30.33 in 10.0 mi North 11.5 mph 16.1 mph N/A   Clear
10:55 PM 49.6 °F 43.3 °F 79% 30.33 in 10.0 mi North 9.2 mph - N/A   Clear
11:15 PM 47.5 °F 41.2 °F 79% 30.33 in 10.0 mi North 11.5 mph - N/A   Clear
11:35 PM 47.3 °F 40.6 °F 78% 30.32 in 10.0 mi North 9.2 mph - N/A   Clear
11:55 PM 47.1 °F 40.5 °F 78% 30.32 in 10.0 mi North 8.1 mph - N/A   Clear